Fort Wayne, IN

7:14 AM EDT on August 27, 2016 (GMT -0400)
Fort Wayne International

Weather History for KFWA - November, 2014

Change the Weather History Date:

Tuesday, November 4, 2014

  Actual Average Record
Temperature  
Mean Temperature 49 °F 46 °F  
Max Temperature 56 °F 56 °F 76 °F (2003)
Min Temperature 42 °F 37 °F 15 °F (1951)
Degree Days  
Heating Degree Days 16 19  
Month to date heating degree days 90 73  
Since 1 July heating degree days 637 582  
Cooling Degree Days 0 0  
Month to date cooling degree days 0 0  
Year to date cooling degree days 731 809  
Moisture  
Dew Point 42 °F    
Average Humidity 66    
Maximum Humidity 93    
Minimum Humidity 38    
Precipitation  
Precipitation 0.26 in 0.10 in 1.15 in (1935)
Month to date precipitation 0.26 0.38  
Year to date precipitation 38.33 32.86  
Snow  
Snow 0.00 in 0.00 in 1.90 in (1950)
Month to date snowfall T 0.1  
Since 1 July snowfall T 0.4  
Since 1 September snowfall T 0.4  
Snow Depth 0.00 in    
Sea Level Pressure  
Sea Level Pressure 30.04 in    
Wind  
Wind Speed 15 mph (SW)    
Max Wind Speed 30 mph    
Max Gust Speed 37 mph    
Visibility 8 miles    
Events Rain    
T = Trace of Precipitation, MM = Missing Value Source: NWS Daily Summary

Daily Weather History Graph

Daily Weather History Graph

Search for Another Location

Airport or City:

Trip Planner

Search our weather history database for the weather conditions in past years. The results will help you decide how hot, cold, wet, or windy it might be!

Date:

Astronomy

Nov. 04, 2014 Rise Set
Actual Time 7:15 AM EST 5:32 PM EST
Civil Twilight 6:46 AM EST 6:01 PM EST
Nautical Twilight 6:13 AM EST 6:34 PM EST
Astronomical Twilight 5:41 AM EST 7:06 PM EST
Moon 4:20 PM EST (11/4) 4:30 AM EST (11/4)
Length of Visible Light 11h 15m
Length of Day
10h 17m
Waxing Gibbous, 94% of the Moon is Illuminated
Nov 4
Waxing Gibbous
Nov 6
Full
Nov 14
Last Quarter
Nov 22
New
Nov 29
First Quarter

Hourly Weather History & Observations

Time (EST) Temp. Windchill Dew Point Humidity Pressure Visibility Wind Dir Wind Speed Gust Speed Precip Events Conditions
12:54 AM 55.0 °F - 30.9 °F 40% 30.08 in 10.0 mi SW 17.3 mph - N/A   Overcast
1:54 AM 53.1 °F - 30.9 °F 43% 30.07 in 10.0 mi SW 12.7 mph - N/A   Mostly Cloudy
2:54 AM 52.0 °F - 32.0 °F 47% 30.06 in 10.0 mi SW 11.5 mph - N/A   Mostly Cloudy
3:54 AM 54.0 °F - 32.0 °F 43% 30.05 in 10.0 mi SW 16.1 mph - N/A   Mostly Cloudy
4:54 AM 54.0 °F - 33.1 °F 45% 30.04 in 10.0 mi SW 13.8 mph - N/A   Mostly Cloudy
5:54 AM 54.0 °F - 33.1 °F 45% 30.05 in 10.0 mi SW 12.7 mph - N/A   Overcast
6:54 AM 53.1 °F - 35.1 °F 50% 30.04 in 10.0 mi SW 12.7 mph - N/A   Overcast
7:54 AM 54.0 °F - 36.0 °F 51% 30.03 in 10.0 mi SW 13.8 mph - N/A   Overcast
8:54 AM 50.0 °F - 44.1 °F 80% 30.04 in 3.0 mi WSW 20.7 mph 31.1 mph 0.00 in Rain Light Rain
9:38 AM 48.9 °F - 45.0 °F 86% 30.04 in 2.5 mi SW 17.3 mph 28.8 mph 0.03 in Rain Light Rain
9:54 AM 48.0 °F - 45.0 °F 89% 30.05 in 2.5 mi SW 24.2 mph 29.9 mph 0.04 in Rain Light Rain
10:09 AM 48.0 °F - 46.0 °F 93% 30.04 in 3.0 mi SW 18.4 mph - 0.01 in Rain Light Rain
10:24 AM 48.0 °F - 45.0 °F 89% 30.03 in 7.0 mi SW 17.3 mph - 0.02 in Rain Light Rain
10:54 AM 48.9 °F - 46.0 °F 90% 30.02 in 10.0 mi SSW 16.1 mph - 0.02 in   Overcast
11:43 AM 50.0 °F - 46.0 °F 86% 30.01 in 10.0 mi SW 18.4 mph - 0.00 in   Overcast
11:54 AM 50.0 °F - 46.0 °F 86% 30.01 in 10.0 mi SW 13.8 mph - 0.00 in   Overcast
12:54 PM 50.0 °F - 46.9 °F 89% 30.00 in 8.0 mi SW 21.9 mph - 0.00 in Rain Light Rain
1:28 PM 50.0 °F - 46.9 °F 89% 29.99 in 5.0 mi SW 18.4 mph - 0.01 in Rain Light Rain
1:54 PM 50.0 °F - 46.9 °F 89% 30.00 in 4.0 mi SW 18.4 mph - 0.03 in Rain Light Rain
2:54 PM 50.0 °F - 48.0 °F 93% 29.99 in 5.0 mi SW 17.3 mph - 0.04 in Rain Light Rain
3:15 PM 50.0 °F - 48.0 °F 93% 30.00 in 5.0 mi SW 17.3 mph - 0.01 in Rain Light Rain
3:54 PM 50.0 °F - 48.0 °F 93% 30.01 in 4.0 mi SW 15.0 mph - 0.05 in Rain Light Rain
4:18 PM 50.0 °F - 48.9 °F 96% 30.00 in 4.0 mi SW 15.0 mph - 0.03 in Rain Light Rain
4:54 PM 50.0 °F - 48.9 °F 96% 30.00 in 5.0 mi SW 15.0 mph - 0.07 in Rain Light Rain
5:54 PM 50.0 °F - 48.0 °F 93% 30.01 in 10.0 mi WSW 15.0 mph - 0.01 in   Overcast
6:12 PM 50.0 °F - 48.0 °F 93% 30.01 in 10.0 mi WSW 17.3 mph - N/A   Overcast
6:54 PM 48.0 °F - 44.1 °F 86% 30.04 in 10.0 mi WSW 19.6 mph 25.3 mph N/A   Overcast
7:32 PM 46.9 °F - 44.1 °F 90% 30.06 in 9.0 mi West 13.8 mph - N/A   Overcast
7:54 PM 46.9 °F - 44.1 °F 90% 30.08 in 10.0 mi West 11.5 mph - N/A   Overcast
8:36 PM 45.0 °F 37.6 °F 39.9 °F 82% 30.09 in 10.0 mi WSW 17.3 mph - N/A   Mostly Cloudy
8:54 PM 45.0 °F 39.3 °F 39.9 °F 82% 30.10 in 10.0 mi WSW 11.5 mph - N/A   Mostly Cloudy
9:54 PM 44.1 °F 38.1 °F 39.9 °F 85% 30.13 in 10.0 mi WSW 11.5 mph - N/A   Overcast
10:54 PM 44.1 °F 38.1 °F 39.9 °F 85% 30.14 in 10.0 mi WSW 11.5 mph - N/A   Overcast
11:54 PM 42.1 °F 36.1 °F 39.0 °F 89% 30.15 in 10.0 mi WSW 10.4 mph - N/A   Overcast